ICAMP LIBR-LINL

Flight info

Callsign ICAMP
Flight time 1h 8m
Altitude 1500
Route LIBR MESAGNE PORTOCESAREO GALLIPOLI LEUCA ALIMINI VERNOLE LINL
Aircraft C152/L-SC/C

Departure

Time 2026-05-04 15:39
Airport Brindisi Airport (LIBR)

Arrival

Time 2026-05-04 16:48
Airport Lecce-San Cataldo Lepore Airfield (LINL)
Time Latitude Longitude Altitude Speed Heading
2026-05-04 15:30 40.65908 17.94240 50 ft 0 kts
2026-05-04 15:34 40.65916 17.94249 50 ft 3 kts 77°
2026-05-04 15:34 40.65810 17.94290 50 ft 10 kts 140°
2026-05-04 15:35 40.65879 17.94449 50 ft 12 kts 52°
2026-05-04 15:35 40.65894 17.94473 50 ft 0 kts 52°
2026-05-04 15:36 40.65919 17.94516 50 ft 0 kts 52°
2026-05-04 15:37 40.65934 17.94542 50 ft 6 kts 51°
2026-05-04 15:38 40.65980 17.94517 49 ft 1 kts 317°
2026-05-04 15:38 40.65990 17.94505 49 ft 16 kts 317°
2026-05-04 15:38 40.66209 17.94236 51 ft 69 kts 317°
2026-05-04 15:39 40.66629 17.93725 133 ft 88 kts 317°
2026-05-04 15:39 40.67079 17.93166 283 ft 91 kts 316°
2026-05-04 15:39 40.67913 17.91882 668 ft 97 kts 277°
2026-05-04 15:40 40.67532 17.91219 788 ft 94 kts 177°
2026-05-04 15:40 40.66905 17.91493 812 ft 96 kts 143°
2026-05-04 15:40 40.66486 17.92093 984 ft 87 kts 127°
2026-05-04 15:40 40.66125 17.92756 1093 ft 90 kts 124°
2026-05-04 15:41 40.65712 17.93367 1235 ft 89 kts 131°
2026-05-04 15:41 40.65271 17.93959 1358 ft 92 kts 141°
2026-05-04 15:41 40.64627 17.93966 1366 ft 104 kts 209°
2026-05-04 15:41 40.64106 17.93263 1357 ft 106 kts 231°
2026-05-04 15:42 40.63671 17.92484 1355 ft 107 kts 234°
2026-05-04 15:42 40.63250 17.91678 1387 ft 107 kts 236°
2026-05-04 15:42 40.62848 17.90853 1378 ft 107 kts 238°
2026-05-04 15:42 40.62443 17.90024 1376 ft 107 kts 236°
2026-05-04 15:43 40.62009 17.89222 1410 ft 107 kts 229°
2026-05-04 15:43 40.61485 17.88519 1435 ft 107 kts 224°
2026-05-04 15:43 40.60957 17.87832 1453 ft 106 kts 224°
2026-05-04 15:43 40.60444 17.87127 1456 ft 107 kts 227°
2026-05-04 15:44 40.59956 17.86392 1474 ft 106 kts 230°
2026-05-04 15:44 40.59501 17.85619 1419 ft 108 kts 232°
2026-05-04 15:44 40.59054 17.84831 1407 ft 106 kts 233°
2026-05-04 15:44 40.58627 17.84042 1367 ft 108 kts 234°
2026-05-04 15:45 40.58200 17.83233 1371 ft 107 kts 234°
2026-05-04 15:45 40.57763 17.82438 1359 ft 109 kts 233°
2026-05-04 15:45 40.57336 17.81621 1382 ft 107 kts 235°
2026-05-04 15:45 40.56924 17.80801 1387 ft 107 kts 231°
2026-05-04 15:46 40.56286 17.80361 1398 ft 103 kts 182°
2026-05-04 15:46 40.55600 17.80406 1487 ft 98 kts 174°
2026-05-04 15:46 40.54916 17.80456 1529 ft 99 kts 175°
2026-05-04 15:46 40.54233 17.80502 1570 ft 98 kts 174°
2026-05-04 15:47 40.53542 17.80560 1548 ft 102 kts 174°
2026-05-04 15:47 40.52823 17.80641 1490 ft 104 kts 174°
2026-05-04 15:47 40.52097 17.80733 1455 ft 104 kts 172°
2026-05-04 15:47 40.51402 17.80828 1473 ft 99 kts 172°
2026-05-04 15:48 40.50723 17.80908 1505 ft 98 kts 173°
2026-05-04 15:48 40.50039 17.80950 1501 ft 99 kts 178°
2026-05-04 15:48 40.48671 17.80967 1512 ft 100 kts 176°
2026-05-04 15:49 40.47985 17.80994 1554 ft 97 kts 177°
2026-05-04 15:49 40.47302 17.81003 1557 ft 99 kts 178°
2026-05-04 15:49 40.46618 17.81002 1603 ft 99 kts 178°
2026-05-04 15:49 40.45928 17.80992 1629 ft 98 kts 179°
2026-05-04 15:50 40.45244 17.80986 1655 ft 99 kts 177°
2026-05-04 15:50 40.44530 17.81019 1580 ft 105 kts 175°
2026-05-04 15:50 40.43786 17.81102 1483 ft 110 kts 172°
2026-05-04 15:50 40.43040 17.81218 1439 ft 109 kts 172°
2026-05-04 15:51 40.42272 17.81346 1310 ft 111 kts 170°
2026-05-04 15:51 40.41517 17.81479 1272 ft 109 kts 175°
2026-05-04 15:51 40.40750 17.81506 1198 ft 112 kts 176°
2026-05-04 15:51 40.40003 17.81537 1328 ft 101 kts 178°
2026-05-04 15:52 40.39313 17.81533 1452 ft 96 kts 180°
2026-05-04 15:52 40.38631 17.81506 1447 ft 102 kts 180°
2026-05-04 15:52 40.37941 17.81484 1521 ft 97 kts 181°
2026-05-04 15:52 40.37253 17.81439 1537 ft 100 kts 182°
2026-05-04 15:53 40.36571 17.81372 1590 ft 98 kts 184°
2026-05-04 15:53 40.35884 17.81263 1579 ft 103 kts 186°
2026-05-04 15:53 40.35157 17.81127 1502 ft 106 kts 186°
2026-05-04 15:53 40.34433 17.81042 1478 ft 104 kts 177°
2026-05-04 15:54 40.33701 17.81147 1430 ft 105 kts 173°
2026-05-04 15:54 40.32984 17.81233 1424 ft 104 kts 174°
2026-05-04 15:54 40.32266 17.81304 1405 ft 105 kts 175°
2026-05-04 15:54 40.31545 17.81381 1389 ft 104 kts 175°
2026-05-04 15:55 40.30819 17.81448 1375 ft 104 kts 174°
2026-05-04 15:55 40.30097 17.81536 1378 ft 104 kts 173°
2026-05-04 15:55 40.29408 17.81810 1327 ft 107 kts 152°
2026-05-04 15:55 40.28783 17.82239 1433 ft 100 kts 153°
2026-05-04 15:56 40.28162 17.82610 1529 ft 96 kts 154°
2026-05-04 15:56 40.27533 17.83002 1524 ft 100 kts 152°
2026-05-04 15:56 40.26930 17.83399 1607 ft 98 kts 152°
2026-05-04 15:56 40.26298 17.83767 1635 ft 99 kts 155°
2026-05-04 15:57 40.25676 17.84126 1693 ft 98 kts 154°
2026-05-04 15:57 40.25039 17.84498 1676 ft 105 kts 155°
2026-05-04 15:57 40.24358 17.84893 1604 ft 107 kts 154°
2026-05-04 15:57 40.23664 17.85322 1488 ft 111 kts 153°
2026-05-04 15:58 40.22953 17.85747 1339 ft 116 kts 155°
2026-05-04 15:58 40.22248 17.86159 1304 ft 109 kts 155°
2026-05-04 15:58 40.21557 17.86562 1276 ft 107 kts 155°
2026-05-04 15:58 40.20903 17.86950 1312 ft 103 kts 155°
2026-05-04 15:59 40.20260 17.87336 1370 ft 99 kts 154°
2026-05-04 15:59 40.19642 17.87712 1432 ft 98 kts 154°
2026-05-04 15:59 40.19020 17.88097 1474 ft 99 kts 154°
2026-05-04 15:59 40.18400 17.88476 1519 ft 99 kts 154°
2026-05-04 16:00 40.17852 17.88997 1562 ft 98 kts 127°
2026-05-04 16:00 40.17557 17.89806 1577 ft 99 kts 109°
2026-05-04 16:00 40.17335 17.90676 1560 ft 102 kts 107°
2026-05-04 16:00 40.17136 17.91574 1534 ft 105 kts 104°
2026-05-04 16:01 40.16957 17.92498 1519 ft 104 kts 108°
2026-05-04 16:01 40.16562 17.93290 1485 ft 106 kts 133°
2026-05-04 16:01 40.16018 17.93929 1483 ft 104 kts 139°
2026-05-04 16:01 40.15448 17.94531 1456 ft 106 kts 141°
2026-05-04 16:02 40.14861 17.95103 1454 ft 105 kts 143°
2026-05-04 16:02 40.14270 17.95647 1438 ft 106 kts 144°
2026-05-04 16:02 40.13033 17.96680 1413 ft 106 kts 149°
2026-05-04 16:03 40.12390 17.97147 1404 ft 106 kts 152°
2026-05-04 16:03 40.11740 17.97579 1404 ft 105 kts 153°
2026-05-04 16:03 40.11089 17.97985 1473 ft 98 kts 154°
2026-05-04 16:03 40.10454 17.98351 1487 ft 102 kts 158°
2026-05-04 16:04 40.09770 17.98563 1548 ft 99 kts 170°
2026-05-04 16:04 40.08422 17.98211 1566 ft 103 kts 210°
2026-05-04 16:04 40.07798 17.97721 1535 ft 106 kts 210°
2026-05-04 16:05 40.07089 17.97438 1476 ft 109 kts 185°
2026-05-04 16:05 40.06350 17.97522 1477 ft 106 kts 166°
2026-05-04 16:05 40.04910 17.97972 1467 ft 106 kts 166°
2026-05-04 16:06 40.04190 17.98208 1443 ft 107 kts 166°
2026-05-04 16:06 40.02275 17.98831 1418 ft 107 kts 167°
2026-05-04 16:07 40.01551 17.99048 1407 ft 106 kts 168°
2026-05-04 16:07 39.99129 17.99643 1380 ft 106 kts 171°
2026-05-04 16:08 39.98635 17.99748 1366 ft 107 kts 169°
2026-05-04 16:08 39.96610 18.00629 1498 ft 104 kts 155°
2026-05-04 16:09 39.95356 18.01519 1536 ft 109 kts 147°
2026-05-04 16:09 39.94093 18.02612 1517 ft 107 kts 142°
2026-05-04 16:10 39.92966 18.03900 1507 ft 108 kts 136°
2026-05-04 16:11 39.91306 18.05902 1507 ft 108 kts 137°
2026-05-04 16:11 39.90733 18.06534 1511 ft 108 kts 140°
2026-05-04 16:12 39.89113 18.08541 1508 ft 107 kts 125°
2026-05-04 16:12 39.88052 18.11123 1456 ft 108 kts 118°
2026-05-04 16:13 39.87155 18.12693 1442 ft 108 kts 128°
2026-05-04 16:13 39.86187 18.14173 1424 ft 109 kts 131°
2026-05-04 16:14 39.85194 18.15654 1425 ft 108 kts 125°
2026-05-04 16:14 39.84427 18.17337 1398 ft 109 kts 120°
2026-05-04 16:15 39.83233 18.19845 1360 ft 109 kts 123°
2026-05-04 16:16 39.82773 18.21592 1453 ft 99 kts 90°
2026-05-04 16:16 39.82694 18.24354 1536 ft 101 kts 89°
2026-05-04 16:17 39.82254 18.26088 1542 ft 109 kts 117°
2026-05-04 16:18 39.81138 18.28749 1366 ft 115 kts 118°
2026-05-04 16:18 39.80740 18.29655 1304 ft 113 kts 119°
2026-05-04 16:19 39.79829 18.32362 1318 ft 108 kts 110°
2026-05-04 16:19 39.79229 18.34179 1315 ft 109 kts 112°
2026-05-04 16:20 39.78758 18.36954 1294 ft 101 kts 62°
2026-05-04 16:20 39.79648 18.38247 1437 ft 95 kts 40°
2026-05-04 16:21 39.81398 18.39404 1516 ft 94 kts 10°
2026-05-04 16:22 39.82703 18.39662 1568 ft 98 kts
2026-05-04 16:22 39.84773 18.39914 1521 ft 101 kts
2026-05-04 16:23 39.86871 18.40073 1480 ft 100 kts
2026-05-04 16:24 39.89630 18.40686 1367 ft 101 kts 11°
2026-05-04 16:25 39.90940 18.40667 1462 ft 94 kts 356°
2026-05-04 16:26 39.93656 18.40693 1303 ft 99 kts
2026-05-04 16:26 39.95540 18.41124 1482 ft 89 kts 18°
2026-05-04 16:27 39.96712 18.41795 1579 ft 90 kts 23°
2026-05-04 16:28 39.98578 18.42964 1427 ft 103 kts 25°
2026-05-04 16:28 40.00453 18.44282 1323 ft 97 kts 30°
2026-05-04 16:29 40.02611 18.46205 1518 ft 94 kts 33°
2026-05-04 16:30 40.04253 18.47766 1454 ft 100 kts 34°
2026-05-04 16:31 40.05448 18.48594 1439 ft 99 kts 14°
2026-05-04 16:31 40.07303 18.49540 1448 ft 98 kts 34°
2026-05-04 16:32 40.08941 18.51180 1342 ft 99 kts 36°
2026-05-04 16:33 40.10051 18.52154 1310 ft 97 kts 20°
2026-05-04 16:33 40.11365 18.52380 1283 ft 98 kts 351°
2026-05-04 16:34 40.12615 18.51871 1413 ft 91 kts 342°
2026-05-04 16:34 40.13208 18.51580 1463 ft 91 kts 342°
2026-05-04 16:35 40.15014 18.50638 1556 ft 97 kts 340°
2026-05-04 16:35 40.16858 18.49691 1600 ft 103 kts 332°
2026-05-04 16:36 40.17380 18.49042 1489 ft 105 kts 310°
2026-05-04 16:36 40.18339 18.47658 1424 ft 102 kts 319°
2026-05-04 16:37 40.19375 18.46389 1427 ft 101 kts 321°
2026-05-04 16:37 40.19896 18.45769 1415 ft 102 kts 319°
2026-05-04 16:37 40.20866 18.44411 1398 ft 101 kts 316°
2026-05-04 16:38 40.21771 18.43029 1363 ft 100 kts 312°
2026-05-04 16:39 40.23122 18.40921 1225 ft 100 kts 313°
2026-05-04 16:39 40.23938 18.39497 1305 ft 90 kts 313°
2026-05-04 16:40 40.24716 18.38134 1360 ft 93 kts 313°
2026-05-04 16:40 40.25578 18.36838 1370 ft 95 kts 314°
2026-05-04 16:41 40.26407 18.35502 1432 ft 93 kts 315°
2026-05-04 16:41 40.27609 18.33474 1428 ft 93 kts 314°
2026-05-04 16:42 40.28967 18.31642 1445 ft 96 kts 317°
2026-05-04 16:43 40.29991 18.30619 1345 ft 98 kts 355°
2026-05-04 16:43 40.31219 18.30700 1434 ft 84 kts
2026-05-04 16:43 40.31829 18.30755 1391 ft 87 kts
2026-05-04 16:44 40.34322 18.31158 1288 ft 94 kts 13°
2026-05-04 16:45 40.35573 18.31570 1234 ft 89 kts
2026-05-04 16:46 40.37469 18.32013 845 ft 94 kts 14°
2026-05-04 16:46 40.38448 18.31225 664 ft 90 kts 306°
2026-05-04 16:47 40.38339 18.30107 540 ft 89 kts 171°
2026-05-04 16:47 40.37163 18.30036 266 ft 76 kts 189°
2026-05-04 16:48 40.35873 18.29797 57 ft 19 kts 185°
2026-05-04 16:48 40.35854 18.29845 54 ft 9 kts 69°
2026-05-04 16:49 40.35919 18.29982 58 ft 12 kts 13°
2026-05-04 16:49 40.36108 18.30034 52 ft 15 kts 12°
2026-05-04 16:50 40.36233 18.30095 52 ft 2 kts 64°
2026-05-04 16:50 40.36241 18.30118 50 ft 0 kts 72°